CW1837 Weather Reports


time (UTC)temp
C
wind
direction
speed
KPH
gust
KPH
rain 1hr
cm
rain 24hr
cm
rain mn
cm
humidity
%
barometer
mb
20260506124207 6 305 3.2 11.3 0.00 0.46 0.41 95 1008.1
20260506123930 6 346 4.8 11.3 0.00 0.46 0.41 95 1008.0
20260506123207 6 313 3.2 6.4 0.03 0.46 0.41 95 1008.0
20260506122706 6 329 3.2 6.4 0.03 0.46 0.41 95 1008.0
20260506122207 6 308 4.8 9.7 0.03 0.46 0.41 95 1007.8
20260506121706 6 302 4.8 9.7 0.03 0.46 0.41 95 1008.2
20260506121207 6 312 1.6 6.4 0.03 0.46 0.41 95 1008.3
20260506120706 6 314 4.8 9.7 0.05 0.46 0.41 95 1008.1
20260506120206 6 329 3.2 11.3 0.05 0.46 0.41 95 1008.2
20260506115708 6 308 4.8 11.3 0.05 0.46 0.41 95 1008.3
20260506115207 6 312 1.6 4.8 0.05 0.46 0.41 95 1007.8
20260506114708 6 282 1.6 9.7 0.05 0.46 0.41 95 1008.0
20260506114207 6 299 1.6 9.7 0.05 0.46 0.41 95 1007.9
20260506113707 6 284 6.4 9.7 0.08 0.46 0.41 95 1007.6
20260506113207 6 302 4.8 12.9 0.05 0.43 0.38 95 1008.0
20260506112707 6 333 6.4 12.9 0.05 0.43 0.38 94 1007.6
20260506112206 6 289 3.2 11.3 0.08 0.43 0.38 94 1007.7
20260506111708 6 292 3.2 11.3 0.08 0.43 0.38 94 1008.0
20260506111207 6 320 6.4 11.3 0.08 0.43 0.38 94 1008.0
20260506110707 6 284 1.6 12.9 0.05 0.41 0.36 94 1008.1
20260506110208 6 326 3.2 12.9 0.05 0.41 0.36 94 1007.7
20260506105707 6 291 6.4 6.4 0.05 0.41 0.36 94 1007.6
20260506105206 6 67 3.2 9.7 0.08 0.41 0.36 94 1007.8
20260506104706 6 312 3.2 11.3 0.08 0.41 0.36 94 1008.0
20260506104440 6 307 8.0 11.3 0.08 0.41 0.36 94 1007.5
20260506103706 6 294 1.6 9.7 0.05 0.38 0.33 94 1007.4
20260506103206 6 286 1.6 9.7 0.05 0.38 0.33 94 1007.3
20260506103152 6 223 1.6 6.4 0.05 0.38 0.33 94 1007.2
20260506102206 6 280 3.2 6.4 0.03 0.36 0.30 94 1007.2
20260506101707 6 297 1.6 6.4 0.03 0.36 0.30 94 1007.4
20260506101435 6 196 0.0 11.3 0.03 0.36 0.30 94 1007.5
20260506100707 6 284 4.8 11.3 0.03 0.36 0.30 94 1007.5
20260506100207 6 299 0.0 11.3 0.03 0.36 0.30 94 1007.5
20260506095707 6 287 4.8 11.3 0.03 0.36 0.30 94 1007.4
20260506095207 6 305 1.6 6.4 0.00 0.33 0.28 94 1007.7
20260506094930 6 343 1.6 9.7 0.00 0.33 0.28 93 1007.3
20260506094426 6 287 3.2 9.7 0.00 0.33 0.28 93 1007.8
20260506093707 6 250 3.2 6.4 0.00 0.33 0.28 93 1007.7
20260506093431 6 243 1.6 4.8 0.00 0.33 0.28 93 1007.6
20260506092706 6 240 1.6 4.8 0.00 0.33 0.28 93 1007.8
20260506092206 6 252 1.6 6.4 0.00 0.33 0.28 93 1007.9
20260506091707 6 278 0.0 6.4 0.00 0.33 0.28 93 1008.0
20260506091207 6 248 3.2 6.4 0.00 0.33 0.28 93 1007.9
20260506090930 6 263 4.8 9.7 0.00 0.33 0.28 93 1007.9
20260506090208 6 269 3.2 9.7 0.00 0.33 0.28 93 1007.9
20260506085708 6 282 1.6 9.7 0.00 0.33 0.28 92 1008.1
20260506085206 6 318 4.8 11.3 0.00 0.33 0.28 92 1007.7
20260506084706 6 262 3.2 11.3 0.00 0.33 0.28 92 1008.0
20260506084206 6 270 3.2 6.4 0.00 0.33 0.28 92 1007.7
20260506083927 6 296 3.2 9.7 0.00 0.33 0.28 92 1008.0
20260506083207 6 313 3.2 9.7 0.00 0.33 0.28 91 1007.6
20260506082932 6 248 1.6 11.3 0.00 0.33 0.28 91 1007.8
20260506082206 6 284 3.2 11.3 0.00 0.33 0.28 91 1008.0
20260506081932 6 259 6.4 11.3 0.03 0.33 0.28 90 1007.6
20260506081207 6 274 1.6 12.9 0.03 0.33 0.28 90 1008.0
20260506080706 6 306 1.6 12.9 0.03 0.33 0.28 90 1007.8
20260506080651 6 298 6.4 12.9 0.05 0.33 0.28 90 1007.3
20260506073207 7 278 6.4 16.1 0.13 0.33 0.28 93 1007.4
20260506072707 7 290 9.7 17.7 0.13 0.33 0.28 93 1007.1
20260506072207 7 275 4.8 17.7 0.15 0.33 0.28 93 1007.4
20260506071707 7 295 9.7 12.9 0.15 0.30 0.25 93 1007.2
20260506071207 7 280 6.4 14.5 0.15 0.30 0.25 94 1007.3
20260506070707 7 271 3.2 14.5 0.18 0.30 0.25 94 1007.4
20260506070206 7 281 6.4 11.3 0.15 0.28 0.23 94 1007.5
20260506062207 7 324 1.6 1.6 0.13 0.18 0.13 93 1007.8
20260506061707 7 310 0.0 1.6 0.10 0.15 0.10 92 1007.8
20260506061206 7 78 0.0 1.6 0.10 0.15 0.10 92 1008.0
20260506060707 7 338 0.0 4.8 0.08 0.13 0.08 91 1008.0
20260506060206 7 279 0.0 6.4 0.08 0.13 0.08 90 1008.2
20260506050925 7 227 3.2 3.2 0.00 0.05 0.00 86 1008.4
20260506050206 7 242 0.0 4.8 0.00 0.05 0.00 86 1008.8
20260506044707 7 224 0.0 3.2 0.00 0.05 0.00 87 1008.8
20260506044207 7 268 1.6 4.8 0.00 0.05 0.00 86 1008.5
20260506043707 7 238 1.6 4.8 0.00 0.05 0.00 86 1008.3
20260506043206 7 219 1.6 4.8 0.00 0.05 0.00 86 1008.0
20260506042707 7 254 1.6 4.8 0.00 0.05 0.00 87 1008.3
20260506042207 7 209 1.6 3.2 0.00 0.05 0.00 87 1008.1
20260506041706 7 207 0.0 3.2 0.00 0.05 0.00 87 1008.2
20260506041206 7 260 1.6 3.2 0.00 0.05 0.00 88 1008.3
20260506040707 7 226 3.2 3.2 0.00 0.05 0.00 88 1008.1
20260506040208 7 290 0.0 3.2 0.00 0.05 0.00 88 1008.2
20260506035706 7 268 0.0 1.6 0.00 0.05 0.05 88 1008.4
20260506035206 7 331 0.0 1.6 0.00 0.05 0.05 89 1008.3
20260506034707 7 287 0.0 1.6 0.00 0.05 0.05 89 1008.3
20260506034207 7 298 0.0 1.6 0.00 0.05 0.05 89 1008.0
20260506033707 7 314 0.0 1.6 0.00 0.05 0.05 88 1008.1
20260506033207 7 316 0.0 0.0 0.00 0.05 0.05 88 1008.4
20260506032707 7 337 0.0 0.0 0.00 0.05 0.05 88 1008.0
20260506032207 7 344 0.0 0.0 0.00 0.05 0.05 88 1008.4
20260506031707 7 344 0.0 1.6 0.00 0.05 0.05 88 1008.0
20260506031207 7 298 0.0 1.6 0.00 0.05 0.05 88 1007.8
20260506030708 7 335 0.0 1.6 0.00 0.05 0.05 88 1007.9
20260506030206 7 275 0.0 4.8 0.00 0.05 0.05 88 1008.0
20260506025707 7 337 1.6 4.8 0.00 0.05 0.05 88 1008.0
20260506025206 7 341 1.6 4.8 0.00 0.05 0.05 88 1007.8
20260506024706 7 301 3.2 4.8 0.00 0.05 0.05 88 1008.2
20260506024206 7 328 1.6 4.8 0.00 0.05 0.05 87 1008.1
20260506023707 7 325 3.2 4.8 0.00 0.05 0.05 87 1008.3
20260506023206 7 9 1.6 6.4 0.00 0.05 0.05 86 1008.1
20260506022707 7 334 4.8 6.4 0.00 0.05 0.05 86 1008.2
20260506022206 7 24 1.6 4.8 0.00 0.05 0.05 85 1008.2
20260506021707 7 18 1.6 3.2 0.00 0.05 0.05 84 1008.5
20260506021207 7 76 0.0 3.2 0.00 0.05 0.05 84 1008.7
20260506020707 7 9 0.0 3.2 0.00 0.05 0.05 83 1008.4
20260506020650 7 16 1.6 3.2 0.00 0.05 0.05 83 1008.2
20260506015707 7 24 0.0 4.8 0.00 0.05 0.05 83 1008.1
20260506015428 7 35 0.0 4.8 0.00 0.05 0.05 82 1008.3
20260506014706 7 18 1.6 6.4 0.00 0.05 0.05 82 1008.4
20260506014208 7 303 1.6 9.7 0.00 0.05 0.05 82 1007.7
20260506013707 7 23 6.4 9.7 0.00 0.05 0.05 81 1008.0
20260506013207 7 327 6.4 9.7 0.00 0.05 0.05 79 1007.8
20260506012707 8 330 6.4 11.3 0.00 0.05 0.05 76 1007.9
20260506012207 8 338 4.8 11.3 0.00 0.05 0.05 71 1007.9
20260506011707 9 338 1.6 1.6 0.00 0.05 0.05 60 1008.2
20260506011207 9 320 0.0 3.2 0.00 0.05 0.05 60 1007.8
20260506010707 9 333 1.6 3.2 0.00 0.05 0.05 58 1007.7
20260506010207 9 340 1.6 1.6 0.00 0.05 0.05 60 1007.7
20260506005709 9 223 0.0 1.6 0.00 0.05 0.05 58 1007.4
20260506005425 9 211 1.6 1.6 0.00 0.05 0.05 58 1007.3
20260506004706 9 186 0.0 4.8 0.00 0.05 0.05 58 1007.3
20260506004207 10 176 0.0 4.8 0.00 0.05 0.05 58 1007.4
20260506003706 10 152 1.6 4.8 0.00 0.05 0.05 58 1007.5
20260506003423 10 213 1.6 4.8 0.00 0.05 0.05 59 1007.2
20260506002934 10 221 1.6 4.8 0.00 0.05 0.05 59 1007.2
20260506002206 10 170 1.6 4.8 0.00 0.05 0.05 60 1006.9
20260506001707 10 195 3.2 3.2 0.00 0.05 0.05 60 1006.9
20260506001207 10 160 1.6 4.8 0.00 0.05 0.05 60 1006.9
20260506000912 10 165 4.8 4.8 0.00 0.05 0.05 59 1006.9
20260506000854 10 168 4.8 4.8 0.00 0.05 0.05 59 1007.0
20260505235709 10 176 3.2 9.7 0.00 0.05 0.05 58 1006.7
20260505235207 10 177 6.4 9.7 0.00 0.05 0.05 58 1006.5
20260505234707 10 148 4.8 6.4 0.00 0.05 0.05 57 1006.4
20260505234207 10 181 3.2 6.4 0.00 0.05 0.05 59 1006.3
20260505233707 10 176 1.6 9.7 0.00 0.05 0.05 59 1006.3
20260505233206 10 168 3.2 9.7 0.00 0.05 0.05 59 1006.4
20260505232926 10 200 1.6 6.4 0.00 0.05 0.05 60 1006.3
20260505232206 10 187 6.4 6.4 0.00 0.05 0.05 58 1006.4
20260505231925 10 160 1.6 6.4 0.00 0.05 0.05 60 1006.6
20260505231206 10 173 3.2 9.7 0.00 0.05 0.05 60 1006.4
20260505230707 10 147 3.2 9.7 0.00 0.05 0.05 59 1006.7
20260505230435 10 159 4.8 11.3 0.00 0.05 0.05 60 1006.9
20260505225706 10 168 3.2 12.9 0.00 0.05 0.05 60 1006.7
20260505225206 10 155 9.7 12.9 0.00 0.05 0.05 59 1006.6
20260505224707 10 174 3.2 12.9 0.00 0.05 0.05 60 1006.6
20260505224207 10 149 8.0 11.3 0.00 0.05 0.05 59 1006.8
20260505223706 10 156 3.2 11.3 0.00 0.05 0.05 60 1006.7
20260505223208 10 168 9.7 11.3 0.00 0.05 0.05 59 1006.9
20260505222706 10 147 6.4 16.1 0.00 0.05 0.05 61 1006.9
20260505222426 10 168 3.2 16.1 0.00 0.05 0.05 62 1006.5
20260505221708 10 163 4.8 14.5 0.00 0.05 0.05 63 1006.4
20260505221207 10 169 11.3 14.5 0.00 0.05 0.05 64 1006.4
20260505220706 10 113 3.2 12.9 0.00 0.05 0.05 67 1006.4
20260505220207 10 169 6.4 12.9 0.00 0.05 0.05 67 1006.4
20260505215706 10 191 9.7 12.9 0.00 0.05 0.05 67 1006.4
20260505215429 10 164 6.4 11.3 0.00 0.05 0.05 68 1006.4
20260505214707 10 216 3.2 6.4 0.00 0.05 0.05 70 1006.4
20260505214207 10 166 3.2 11.3 0.00 0.05 0.05 70 1006.5
20260505213707 10 144 6.4 11.3 0.00 0.05 0.05 70 1006.1
20260505213207 10 174 3.2 9.7 0.00 0.05 0.05 71 1006.3
20260505212706 10 147 3.2 12.9 0.00 0.05 0.05 71 1006.5
20260505212207 10 183 6.4 12.9 0.00 0.05 0.05 70 1006.1
20260505211706 10 189 4.8 9.7 0.00 0.05 0.05 72 1006.0
20260505211207 10 168 3.2 12.9 0.03 0.05 0.05 72 1006.3
20260505210707 10 163 8.0 12.9 0.03 0.05 0.05 71 1006.1
20260505210207 10 147 4.8 12.9 0.05 0.05 0.05 72 1006.1
20260505205707 10 184 4.8 12.9 0.05 0.05 0.05 72 1006.0
20260505205207 10 167 6.4 14.5 0.05 0.05 0.05 73 1006.2
20260505204707 10 164 3.2 14.5 0.05 0.05 0.05 73 1006.1
20260505204207 9 156 6.4 14.5 0.05 0.05 0.05 73 1005.9
20260505203707 9 176 9.7 14.5 0.05 0.05 0.05 73 1006.1
20260505203207 9 152 4.8 16.1 0.05 0.05 0.05 74 1006.1
20260505202707 9 165 11.3 16.1 0.05 0.05 0.05 73 1005.9
20260505202207 9 145 6.4 16.1 0.05 0.05 0.05 74 1005.7
20260505201932 10 139 8.0 16.1 0.05 0.05 0.05 72 1005.9
20260505201207 10 143 6.4 16.1 0.03 0.03 0.03 70 1006.2
20260505200707 10 159 6.4 17.7 0.03 0.03 0.03 70 1005.9
20260505200207 11 185 4.8 17.7 0.00 0.00 0.03 67 1006.0
20260505195707 11 138 12.9 27.4 0.00 0.00 0.00 62 1005.3
20260505195207 11 189 4.8 27.4 0.00 0.00 0.00 60 1005.6
20260505194929 12 120 9.7 22.5 0.00 0.00 0.00 59 1005.1
20260505194208 12 169 11.3 22.5 0.00 0.00 0.00 56 1005.0
20260505193707 12 162 17.7 20.9 0.00 0.00 0.00 53 1005.1
20260505193207 12 194 12.9 20.9 0.00 0.00 0.00 54 1004.8
20260505192707 12 161 11.3 24.1 0.00 0.00 0.00 53 1004.6
20260505192207 13 164 14.5 24.1 0.00 0.00 0.00 50 1004.8
20260505191927 13 144 6.4 22.5 0.00 0.00 0.00 51 1004.6
20260505191207 13 176 20.9 22.5 0.00 0.00 0.00 51 1004.4
20260505190708 13 140 12.9 16.1 0.00 0.00 0.00 50 1004.2
20260505190207 13 124 8.0 17.7 0.00 0.00 0.00 52 1004.3
20260505190156 13 202 9.7 17.7 0.00 0.00 0.00 52 1004.3
20260505185207 13 256 9.7 20.9 0.00 0.00 0.00 52 1004.3
20260505184707 13 151 9.7 24.1 0.00 0.00 0.00 51 1004.5
20260505184207 13 179 8.0 24.1 0.00 0.00 0.00 50 1004.3
20260505183706 13 165 12.9 22.5 0.00 0.00 0.00 51 1003.9
20260505183206 13 208 16.1 22.5 0.00 0.00 0.00 50 1004.2
20260505182707 13 139 6.4 20.9 0.00 0.00 0.00 51 1004.0
20260505182206 14 198 9.7 20.9 0.00 0.00 0.00 50 1003.9
20260505181707 14 125 12.9 17.7 0.00 0.00 0.00 50 1003.7
20260505181207 15 150 6.4 20.9 0.00 0.00 0.00 51 1003.5
20260505180706 15 173 9.7 20.9 0.00 0.00 0.00 51 1003.9
20260505180206 15 158 9.7 14.5 0.00 0.00 0.00 50 1003.7
20260505175707 15 147 4.8 14.5 0.00 0.00 0.00 53 1003.8
20260505175206 15 139 6.4 20.9 0.00 0.00 0.00 54 1003.5
20260505174708 16 67 3.2 20.9 0.00 0.00 0.00 54 1003.3
20260505174429 16 174 3.2 17.7 0.00 0.00 0.00 54 1003.3
20260505174145 16 156 9.7 17.7 0.00 0.00 0.00 54 1003.1
20260505173207 16 80 1.6 16.1 0.00 0.00 0.00 55 1002.7
20260505172709 16 206 6.4 14.5 0.00 0.00 0.00 58 1002.8
20260505172207 16 112 3.2 14.5 0.00 0.00 0.00 57 1002.9
20260505171706 15 142 9.7 14.5 0.00 0.00 0.00 57 1002.6
20260505171206 15 165 6.4 16.1 0.00 0.00 0.00 58 1002.7
20260505170708 16 146 9.7 16.1 0.00 0.00 0.00 56 1002.7
20260505170426 15 166 8.0 14.5 0.00 0.00 0.00 58 1002.3
20260505165707 15 168 4.8 17.7 0.00 0.00 0.00 59 1002.4
20260505165207 15 119 6.4 17.7 0.00 0.00 0.00 59 1002.7
20260505164707 15 150 9.7 20.9 0.00 0.00 0.00 60 1002.6
20260505164207 14 166 6.4 20.9 0.00 0.00 0.00 61 1003.0
20260505163707 14 140 11.3 14.5 0.00 0.00 0.00 61 1002.9
20260505163207 14 95 6.4 14.5 0.00 0.00 0.00 62 1002.7
20260505162707 14 95 4.8 14.5 0.00 0.00 0.00 63 1002.7
20260505162155 14 163 8.0 12.9 0.00 0.00 0.00 63 1002.9
20260505161655 14 152 6.4 16.1 0.00 0.00 0.00 63 1002.6
20260505161415 14 122 4.8 16.1 0.00 0.00 0.00 63 1002.6
20260505160655 14 163 3.2 12.9 0.00 0.00 0.00 64 1002.8
20260505160154 14 104 4.8 12.9 0.00 0.00 0.00 64 1002.1
20260505153119 15 54 4.8 14.5 0.00 0.00 0.00 63 1002.1
20260505152142 15 123 6.4 17.7 0.00 0.00 0.00 64 1001.9
20260505151643 16 97 11.3 20.9 0.00 0.00 0.00 63 1001.6
20260505151624 16 95 4.8 20.9 0.00 0.00 0.00 62 1001.6
20260505150643 16 127 6.4 14.5 0.00 0.00 0.00 62 1001.0
20260505150143 16 152 4.8 14.5 0.00 0.00 0.00 62 1001.1
20260505140631 16 23 3.2 11.3 0.00 0.00 0.00 68 1000.2
20260505140131 16 346 6.4 11.3 0.00 0.00 0.00 68 1000.1
20260505130106 15 303 9.7 20.9 0.00 0.00 0.00 72 999.3
20260505124825 15 44 6.4 12.9 0.00 0.00 0.00 72 999.1